User: anonymous   Login
Location: Unspecified
(0.0000°N, 0.0000°E)
Time: 23:03:50
(UTC+02:00)
Language:

Cosmos 1315 Rocket - Orbit

View from above orbital plane
View from above orbital plane
View from above satellite
View from above satellite

Ground track
Ground track

The orbit data is extracted from the following two-line orbital elements,

1 12904U 81103B   15185.53300145  .00001434  00000-0  10076-3 0  9999
2 12904 081.1766 010.0893 0027972 251.6078 108.2102 15.04232801385493
Epoch (UTC): 04 July 2015 12:47:31
Eccentricity: 0.0027972
inclination: 81.1766°
perigee height: 534 km
apogee height: 573 km
right ascension of ascending node: 10.0893°
argument of perigee: 251.6078°
revolutions per day: 15.04232801
mean anomaly at epoch: 108.2102°
orbit number at epoch: 38549

The dashed part of the orbit path shows where the satellite is in the earth's shadow,  

DLR